This is the latest recevied weather packets stored in our database for station/object KE1THD. If no packets are shown the sender has not sent any weather packets the latest 10 day(s).
| Time | Temp. | Humidity | Pressure | Rain* | Wind** | Luminosity | Snow |
|---|---|---|---|---|---|---|---|
| 1778001147 | 12.78° C | 39% | 1011 hPa | 0 mm | - | 360 W/m² | - |
| 1778000844 | 12.22° C | 38% | 1011.1 hPa | 0 mm | - | 390 W/m² | - |
| 1778000541 | 12.22° C | 39% | 1010.8 hPa | 0 mm | - | 336 W/m² | - |
| 1778000236 | 12.78° C | 39% | 1010.8 hPa | 0 mm | - | 319 W/m² | - |
| 1777999932 | 13.33° C | 39% | 1011.1 hPa | 0 mm | - | 360 W/m² | - |
| 1777999628 | 12.78° C | 39% | 1011 hPa | 0 mm | - | 475 W/m² | - |
| 1777999325 | 12.22° C | 40% | 1011.1 hPa | 0 mm | - | 571 W/m² | - |
| 1777999023 | 12.22° C | 39% | 1010.9 hPa | 0 mm | - | 423 W/m² | - |
| 1777998721 | 11.67° C | 41% | 1010.7 hPa | 0 mm | - | 368 W/m² | - |
| 1777998418 | 11.67° C | 42% | 1010.8 hPa | 0 mm | - | 337 W/m² | - |
| 1777998116 | 12.22° C | 41% | 1010.8 hPa | 0 mm | - | 306 W/m² | - |
| 1777997812 | 11.67° C | 43% | 1010.6 hPa | 0 mm | - | 286 W/m² | - |
| 1777997509 | 11.67° C | 43% | 1010.8 hPa | 0 mm | - | 272 W/m² | - |
| 1777997207 | 11.67° C | 41% | 1010.6 hPa | 0 mm | - | 229 W/m² | - |
| 1777996905 | 11.11° C | 42% | 1010.6 hPa | 0 mm | - | 215 W/m² | - |
| 1777996601 | 11.67° C | 43% | 1010.7 hPa | 0 mm | - | 210 W/m² | - |
| 1777996297 | 11.67° C | 41% | 1010.6 hPa | 0 mm | - | 232 W/m² | - |
| 1777995993 | 11.67° C | 43% | 1010.4 hPa | 0 mm | - | 232 W/m² | - |
| 1777995689 | 11.67° C | 42% | 1010.6 hPa | 0 mm | - | 298 W/m² | - |
| 1777995387 | 11.11° C | 42% | 1010.7 hPa | 0 mm | - | 330 W/m² | - |
| 1777995084 | 11.67° C | 41% | 1010.7 hPa | 0 mm | - | 323 W/m² | - |
| 1777994780 | 11.67° C | 41% | 1010.6 hPa | 0 mm | - | 334 W/m² | - |
| 1777994476 | 11.67° C | 41% | 1010.5 hPa | 0 mm | - | 367 W/m² | - |
| 1777994172 | 11.67° C | 41% | 1010.3 hPa | 0 mm | - | 298 W/m² | - |
| 1777993870 | 11.67° C | 43% | 1010.4 hPa | 0 mm | - | 278 W/m² | - |
* Rain latest hour (hover to see other rain measurements)
** Current wind speed in m/s (hover to see current wind gust speed)